Beaumont, TX

11:22 AM CST on February 12, 2016 (GMT -0600)
Beaumont Municipal

Weather History for KBMT - May, 2013

Change the Weather History Date:

Monday, May 20, 2013

  Actual Average (KBPT) Record (KBPT)
Temperature  
Mean Temperature 81 °F 77 °F  
Max Temperature 86 °F 86 °F 95 °F (1905)
Min Temperature 76 °F 68 °F 54 °F (1981)
Degree Days  
Heating Degree Days 0 0  
Month to date heating degree days 0  
Since 1 July heating degree days 1400  
Cooling Degree Days 16 12  
Month to date cooling degree days 195  
Year to date cooling degree days 422  
Growing Degree Days 31 (Base 50)    
Moisture  
Dew Point 75 °F    
Average Humidity 86    
Maximum Humidity 100    
Minimum Humidity 63    
Precipitation  
Precipitation 0.00 in 0.16 in 7.66 in (1983)
Month to date precipitation 3.36  
Year to date precipitation 18.94  
Snow  
Snow 0.00 in 0.00 in 0.00 in ()
Month to date snowfall 0.0  
Since 1 July snowfall T  
Snow Depth -    
Sea Level Pressure  
Sea Level Pressure 29.89 in    
Wind  
Wind Speed 10 mph (SSE)    
Max Wind Speed 17 mph    
Max Gust Speed 24 mph    
Visibility 10 miles    
Events      
T = Trace of Precipitation, MM = Missing Value Source: NWS Daily Summary

Daily Weather History Graph

Daily Weather History Graph

Search for Another Location

Airport or City:

Trip Planner

Search our weather history database for the weather conditions in past years. The results will help you decide how hot, cold, wet, or windy it might be!

Date:

Astronomy

May. 20, 2013 Rise Set
Actual Time 6:20 AM CDT 8:06 PM CDT
Civil Twilight 5:53 AM CDT 8:33 PM CDT
Nautical Twilight 5:22 AM CDT 9:05 PM CDT
Astronomical Twilight 4:48 AM CDT 9:39 PM CDT
Moon 3:34 PM CDT (5/20) 2:54 AM CDT (5/20)
Length of Visible Light 14h 39m
Length of Day
13h 46m
Waxing Gibbous, 75% of the Moon is Illuminated
May 20
Waxing Gibbous
May 24
Full
May 31
Last Quarter
Jun 8
New
Jun 16
First Quarter

Hourly Weather History & Observations

Time (CDT) Temp. Heat Index Dew Point Humidity Pressure Visibility Wind Dir Wind Speed Gust Speed Precip Events Conditions
12:15 AM 77.5 °F - 77.5 °F 100% 29.91 in 10.0 mi SSE 9.2 mph - N/A   Overcast
12:35 AM 77.4 °F - 77.4 °F 100% 29.91 in 10.0 mi South 9.2 mph - N/A   Overcast
12:55 AM 77.4 °F - 77.4 °F 100% 29.91 in 10.0 mi South 9.2 mph 16.1 mph N/A   Overcast
1:15 AM 77.2 °F - 77.2 °F 100% 29.90 in 10.0 mi SSE 8.1 mph - N/A   Overcast
1:35 AM 77.4 °F - 77.4 °F 100% 29.90 in 10.0 mi South 9.2 mph - N/A   Overcast
1:55 AM 77.4 °F - 77.4 °F 100% 29.89 in 10.0 mi SSE 9.2 mph - N/A   Overcast
2:15 AM 76.6 °F - 76.6 °F 100% 29.89 in 7.0 mi South 9.2 mph 16.1 mph N/A   Light Drizzle
2:35 AM 77.0 °F - 77.0 °F 100% 29.88 in 7.0 mi South 10.4 mph - N/A   Overcast
3:15 AM 76.1 °F - 76.1 °F 100% 29.88 in 7.0 mi South 10.4 mph - N/A   Overcast
3:35 AM 76.1 °F - 76.1 °F 100% 29.88 in 7.0 mi SSE 8.1 mph - N/A   Overcast
3:55 AM 76.1 °F - 76.1 °F 100% 29.88 in 7.0 mi South 9.2 mph 16.1 mph N/A   Overcast
4:35 AM 76.1 °F - 76.1 °F 100% 29.88 in 7.0 mi SSE 6.9 mph - N/A   Overcast
4:55 AM 76.1 °F - 76.1 °F 100% 29.88 in 10.0 mi SSE 5.8 mph - N/A   Overcast
5:15 AM 76.3 °F - 76.3 °F 100% 29.88 in 10.0 mi SSE 11.5 mph 18.4 mph N/A   Overcast
5:35 AM 76.3 °F - 76.1 °F 99% 29.89 in 10.0 mi SSE 11.5 mph 17.3 mph N/A   Overcast
5:55 AM 76.3 °F - 75.2 °F 96% 29.89 in 10.0 mi South 6.9 mph - N/A   Overcast
6:15 AM 76.3 °F - 75.7 °F 98% 29.90 in 10.0 mi SSE 9.2 mph - N/A   Overcast
6:35 AM 76.6 °F - 75.2 °F 95% 29.91 in 10.0 mi SSE 6.9 mph 16.1 mph N/A   Overcast
7:15 AM 76.5 °F - 75.6 °F 97% 29.91 in 10.0 mi SSE 6.9 mph - N/A   Overcast
7:35 AM 77.4 °F - 76.3 °F 96% 29.92 in 10.0 mi SSE 11.5 mph - N/A   Overcast
7:55 AM 77.4 °F - 75.6 °F 94% 29.92 in 10.0 mi SSE 12.7 mph - N/A   Overcast
8:15 AM 77.7 °F - 75.7 °F 94% 29.93 in 10.0 mi SSE 11.5 mph 18.4 mph N/A   Overcast
8:35 AM 78.3 °F - 75.2 °F 90% 29.93 in 10.0 mi SSE 11.5 mph 21.9 mph N/A   Overcast
9:15 AM 79.2 °F - 75.6 °F 89% 29.93 in 10.0 mi SSE 11.5 mph 16.1 mph N/A   Overcast
9:35 AM 81.0 °F 86.9 °F 75.2 °F 83% 29.94 in 10.0 mi SSE 11.5 mph 21.9 mph N/A   Overcast
9:55 AM 80.8 °F 86.7 °F 75.4 °F 84% 29.94 in 10.0 mi South 11.5 mph 19.6 mph N/A   Overcast
10:35 AM 82.9 °F 89.9 °F 74.7 °F 76% 29.93 in 10.0 mi SSE 15.0 mph 20.7 mph N/A   Mostly Cloudy
10:55 AM 84.2 °F 91.2 °F 73.8 °F 71% 29.93 in 10.0 mi SSE 15.0 mph 23.0 mph N/A   Mostly Cloudy
11:15 AM 85.1 °F 91.8 °F 73.0 °F 67% 29.93 in 10.0 mi SSE 16.1 mph 20.7 mph N/A   Mostly Cloudy
11:35 AM 84.4 °F 91.0 °F 73.2 °F 69% 29.94 in 10.0 mi South 11.5 mph 18.4 mph N/A   Mostly Cloudy
11:55 AM 85.3 °F 92.2 °F 73.0 °F 67% 29.93 in 10.0 mi North - - N/A   Mostly Cloudy
12:15 PM 85.5 °F 91.8 °F 72.5 °F 65% 29.94 in 10.0 mi SSE 15.0 mph 18.4 mph N/A   Mostly Cloudy
12:35 PM 86.2 °F 92.6 °F 72.3 °F 63% 29.93 in 10.0 mi South 12.7 mph 24.2 mph N/A   Mostly Cloudy
12:55 PM 85.3 °F 91.5 °F 72.5 °F 65% 29.93 in 10.0 mi SSE 15.0 mph 20.7 mph N/A   Mostly Cloudy
1:15 PM 85.8 °F 92.6 °F 72.9 °F 65% 29.92 in 10.0 mi South 13.8 mph 19.6 mph N/A   Mostly Cloudy
1:55 PM 86.0 °F 92.6 °F 72.5 °F 64% 29.92 in 10.0 mi SE 17.3 mph 20.7 mph N/A   Overcast
2:15 PM 84.7 °F 91.0 °F 72.7 °F 67% 29.91 in 10.0 mi SE 15.0 mph - N/A   Overcast
2:35 PM 86.0 °F 93.4 °F 73.6 °F 66% 29.91 in 10.0 mi SSE 13.8 mph - N/A   Overcast
2:55 PM 85.8 °F 92.6 °F 72.9 °F 65% 29.90 in 10.0 mi South 10.4 mph - N/A   Mostly Cloudy
3:15 PM 85.8 °F 92.6 °F 72.7 °F 65% 29.89 in 10.0 mi South 15.0 mph 20.7 mph N/A   Unknown
3:35 PM 84.4 °F 90.6 °F 72.9 °F 68% 29.89 in 10.0 mi South 12.7 mph 20.7 mph N/A   Unknown
3:55 PM 85.3 °F 93.0 °F 74.1 °F 69% 29.88 in 10.0 mi SSE 10.4 mph - N/A   Mostly Cloudy
4:15 PM 84.7 °F 91.7 °F 73.8 °F 69% 29.88 in 10.0 mi SSE 13.8 mph 20.7 mph N/A   Mostly Cloudy
4:35 PM 84.7 °F 91.4 °F 73.0 °F 68% 29.86 in 10.0 mi North - - N/A   Mostly Cloudy
4:55 PM 84.0 °F 90.5 °F 73.4 °F 70% 29.86 in 10.0 mi SSE 16.1 mph 20.7 mph N/A   Mostly Cloudy
5:15 PM 84.6 °F 90.7 °F 72.7 °F 67% 29.85 in 10.0 mi SSE 10.4 mph 19.6 mph N/A   Scattered Clouds
5:35 PM 83.3 °F 89.3 °F 73.2 °F 71% 29.85 in 10.0 mi SSE 13.8 mph 19.6 mph N/A   Mostly Cloudy
5:55 PM 81.9 °F 87.7 °F 74.1 °F 77% 29.84 in 10.0 mi SSE 10.4 mph 21.9 mph N/A   Overcast
6:15 PM 80.8 °F 86.1 °F 74.3 °F 81% 29.84 in 10.0 mi SSE 11.5 mph 17.3 mph N/A   Overcast
6:35 PM 80.1 °F 84.6 °F 74.3 °F 82% 29.83 in 10.0 mi SSE 11.5 mph - N/A   Overcast
6:55 PM 79.7 °F - 75.0 °F 86% 29.83 in 10.0 mi SE 9.2 mph - N/A   Overcast
7:15 PM 79.5 °F - 75.7 °F 88% 29.84 in 10.0 mi SSE 9.2 mph - N/A   Overcast
7:35 PM 79.2 °F - 77.2 °F 94% 29.84 in 10.0 mi SSE 12.7 mph - N/A   Overcast
7:55 PM 79.0 °F - 77.9 °F 96% 29.84 in 10.0 mi SSE 8.1 mph - N/A   Overcast
8:15 PM 78.8 °F - 77.5 °F 96% 29.84 in 10.0 mi North - - N/A   Overcast
8:35 PM 78.8 °F - 77.5 °F 96% 29.84 in 10.0 mi SSE 8.1 mph 18.4 mph N/A   Overcast
9:15 PM 78.4 °F - 77.5 °F 97% 29.86 in 10.0 mi SSE 11.5 mph - N/A   Overcast
9:35 PM 78.4 °F - 77.9 °F 98% 29.87 in 10.0 mi SSE 9.2 mph - N/A   Overcast
9:55 PM 78.1 °F - 77.9 °F 99% 29.87 in 10.0 mi SSE 11.5 mph - N/A   Overcast
10:15 PM 77.9 °F - 77.9 °F 100% 29.87 in 10.0 mi SSE 10.4 mph - N/A   Overcast
10:35 PM 77.9 °F - 77.9 °F 100% 29.88 in 10.0 mi SSE 8.1 mph - N/A   Overcast
10:55 PM 78.1 °F - 77.9 °F 99% 29.88 in 10.0 mi SSE 8.1 mph - N/A   Overcast
11:15 PM 78.1 °F - 77.7 °F 99% 29.88 in 10.0 mi SSE 9.2 mph - N/A   Overcast
11:35 PM 78.1 °F - 77.7 °F 99% 29.88 in 10.0 mi South 9.2 mph - N/A   Overcast
11:55 PM 78.1 °F - 77.2 °F 97% 29.89 in 10.0 mi South 9.2 mph - N/A   Overcast